This demonstration page uses our WeatherBlox Daily Observations layout. Learn more.

Left ArrowRight Arrow

39.51506, -84.39828

Hourly Observations for February 13, 2020

Temp ( °F °C ) Dew Point ( °F °C ) Humidity (%) Winds ( mph kmh ) Pressure ( in mb ) Visibility ( mi km ) Precip ( " mm )
12:15 am 00:15 Cloudy 34 1.1 33 0.8 98 98 NNW 8 13 29.76 1008 7 11.26538 0 0
12:35 am 00:35 Cloudy 34 1.1 33 0.8 98 98 N 9 15 29.75 1008 7 11.26538 0 0
12:55 am 00:55 Cloudy with Mist and Fog 34 1.1 33 0.7 97 97 NNE 9 15 29.73 1007 7 11.26538 0 0
1:15 am 01:15 Cloudy with Mist and Fog 34 1.1 33 0.7 97 97 N 9 15 29.74 1007 7 11.26538 0 0
1:35 am 01:35 Cloudy 34 1.1 33 0.6 97 97 N 6 9 29.75 1008 7 11.26538 0 0
1:55 am 01:55 Cloudy 34 1.1 33 0.6 97 97 NNE 5 7 29.77 1008 10 16.0934 0 0
2:15 am 02:15 Cloudy 34 1.1 33 0.6 97 97 N 5 7 29.78 1009 7 11.26538 0 0
2:35 am 02:35 Cloudy with Mist and Fog 34 1 33 0.6 97 97 NNE 6 9 29.75 1008 5 8.0467 0 0
2:55 am 02:55 Cloudy with Mist and Fog 34 1 33 0.6 97 97 NNE 6 9 29.76 1008 3 4.82802 0 0
3:15 am 03:15 Cloudy with Mist and Fog 34 0.9 33 0.6 98 98 NNE 3 6 29.77 1008 2.5 4.02335 0 0
3:35 am 03:35 Cloudy with Mist and Fog 33 0.8 33 0.5 98 98 N 5 7 29.76 1008 3 4.82802 0 0
3:55 am 03:55 Cloudy with Mist and Fog 33 0.8 33 0.6 99 99 N 3 6 29.76 1008 3 4.82802 0 0
4:15 am 04:15 Cloudy with Mist and Fog 33 0.8 33 0.6 99 99 N 6 9 29.76 1008 3 4.82802 0 0
4:35 am 04:35 Cloudy with Mist and Fog 33 0.8 33 0.6 99 99 N 5 7 29.76 1008 3 4.82802 0 0
4:55 am 04:55 Cloudy with Drizzle 33 0.7 33 0.5 99 99 N 6 9 29.76 1008 3 4.82802 0 0
5:15 am 05:15 Cloudy with Light Rain 33 0.7 33 0.4 98 98 NNW 6 9 29.77 1008 2 3.21868 0 0
5:35 am 05:35 Cloudy with Light Rain 33 0.6 33 0.3 98 98 N 7 11 29.77 1008 3 4.82802 0 0
5:55 am 05:55 Cloudy with Light Rain 33 0.5 32 0.1 97 97 N 3 6 29.8 1009 5 8.0467 0 0
6:15 am 06:15 Cloudy with Light Rain 33 0.5 32 0 96 96 N 3 6 29.81 1010 7 11.26538 0 0
6:35 am 06:35 Cloudy with Light Snow 33 0.4 32 -0.1 96 96 N 7 11 29.82 1010 2 3.21868 0 0
6:55 am 06:55 Cloudy with Light Snow 33 0.3 32 -0.1 97 97 Calm 29.84 1011 2.5 4.02335 0 0
7:15 am 07:15 Cloudy with Light Snow 33 0.3 32 -0.1 97 97 NNW 6 9 29.84 1011 5 8.0467 0 0
7:35 am 07:35 Cloudy with Light Snow 32 0.2 31 -0.4 96 96 NNW 5 7 29.85 1011 1.5 2.41401 0 0
7:55 am 07:55 Cloudy with Light Rain 32 0.1 31 -0.6 95 95 N 6 9 29.84 1011 5 8.0467 0 0
8:15 am 08:15 Cloudy with Mist and Fog 32 0.1 31 -0.7 94 94 N 5 7 29.87 1012 7 11.26538 0 0
8:35 am 08:35 Cloudy with Mist and Fog 32 0.1 31 -0.7 94 94 NNW 7 11 29.88 1012 7 11.26538 0 0
8:55 am 08:55 Cloudy 32 0.2 31 -0.8 93 93 NNW 8 13 29.9 1013 7 11.26538 0 0
9:15 am 09:15 Cloudy 33 0.3 30 -0.9 92 92 NNW 6 9 29.91 1013 7 11.26538 0 0
9:35 am 09:35 Cloudy with Mist and Fog 33 0.4 31 -0.8 92 92 NW 7 11 29.92 1013 7 11.26538 0 0
9:55 am 09:55 Cloudy with Mist and Fog 33 0.5 31 -0.8 91 91 NW 8 13 29.94 1014 5 8.0467 0 0
10:15 am 10:15 Cloudy with Mist and Fog 33 0.6 30 -1 89 89 NW 9 15 29.95 1014 7 11.26538 0 0
10:35 am 10:35 Cloudy with Mist and Fog 34 0.9 31 -0.7 89 89 NW 7 11 29.96 1015 7 11.26538 0 0
10:55 am 10:55 Cloudy with Mist and Fog 34 1.3 31 -0.3 89 89 WNW 8 13 29.96 1015 7 11.26538 0 0
11:15 am 11:15 Cloudy 35 1.6 32 -0.2 88 88 WNW 7 11 29.98 1015 7 11.26538 0 0
11:35 am 11:35 Cloudy 35 1.6 31 -0.5 86 86 WNW 8 13 29.99 1016 7 11.26538 0 0
11:55 am 11:55 Cloudy 35 1.8 31 -0.4 86 86 WNW 10 17 29.99 1016 7 11.26538 0 0
12:15 pm 12:15 Cloudy 35 1.8 31 -0.5 85 85 W 10 17 30.01 1016 10 16.0934 0 0
12:35 pm 12:35 Cloudy 35 1.9 31 -0.5 84 84 WNW 10 17 30.01 1016 10 16.0934 0 0
12:55 pm 12:55 Cloudy 35 1.9 31 -0.4 85 85 W 12 19 30.02 1017 10 16.0934 0 0
1:15 pm 13:15 Cloudy 36 2.1 31 -0.4 84 84 W 12 19 30.01 1016 10 16.0934 0 0
1:35 pm 13:35 Cloudy 37 2.7 32 0 83 83 W 9 15 30.01 1016 10 16.0934 0 0
1:55 pm 13:55 Cloudy 37 2.6 31 -0.3 81 81 W 14 22 30.02 1017 10 16.0934 0 0
2:15 pm 14:15 Cloudy 37 2.5 31 -0.5 81 81 W 14 22 30.03 1017 10 16.0934 0 0
2:35 pm 14:35 Cloudy 36 2.3 31 -0.7 81 81 W 15 24 30.04 1017 10 16.0934 0 0
2:55 pm 14:55 Cloudy 36 2.3 31 -0.6 81 81 WSW 16 26 30.06 1018 10 16.0934 0 0
3:15 pm 15:15 Cloudy 36 2.1 31 -0.6 83 83 W 18 30 30.07 1018 10 16.0934 0 0
3:35 pm 15:35 Cloudy with Light Rain 35 1.8 31 -0.4 86 86 W 16 26 30.08 1019 10 16.0934 0 0
3:55 pm 15:55 Windy with Snow Likely 33 0.7 31 -0.4 92 92 W 21 33 30.1 1019 2.5 4.02335 0 0
4:15 pm 16:15 Cloudy 33 0.3 29 -1.4 89 89 W 17 28 30.11 1020 10 16.0934 0 0
4:35 pm 16:35 Cloudy 32 0.2 28 -2.1 85 85 W 14 22 30.13 1020 10 16.0934 0 0
4:55 pm 16:55 Cloudy 31 -0.5 27 -2.6 86 86 WNW 16 26 30.15 1021 10 16.0934 0 0
5:15 pm 17:15 Cloudy 30 -1.1 27 -3 87 87 W 12 19 30.17 1022 10 16.0934 0 0
5:35 pm 17:35 Cloudy 28 -2 26 -3.6 89 89 W 16 26 30.19 1022 10 16.0934 0 0
5:55 pm 17:55 Cloudy 27 -2.6 24 -4.2 89 89 W 16 26 30.2 1023 10 16.0934 0 0
6:15 pm 18:15 Cloudy 27 -2.8 24 -4.4 89 89 W 14 22 30.21 1023 10 16.0934 0 0
6:35 pm 18:35 Cloudy 26 -3.1 24 -4.7 89 89 W 13 20 30.23 1024 10 16.0934 0 0
6:55 pm 18:55 Cloudy 26 -3.3 23 -5.2 87 87 W 12 19 30.24 1024 10 16.0934 0 0
7:15 pm 19:15 Cloudy 26 -3.6 22 -5.5 87 87 W 15 24 30.26 1025 10 16.0934 0 0
7:35 pm 19:35 Cloudy 25 -3.8 22 -5.6 87 87 W 15 24 30.28 1025 10 16.0934 0 0
7:55 pm 19:55 Cloudy 25 -4 21 -6.1 86 86 W 15 24 30.29 1026 10 16.0934 0 0
8:15 pm 20:15 Cloudy 24 -4.4 20 -6.4 86 86 W 15 24 30.29 1026 10 16.0934 0 0
8:35 pm 20:35 Cloudy 24 -4.5 21 -6.3 87 87 W 15 24 30.3 1026 10 16.0934 0 0
8:55 pm 20:55 Cloudy 23 -4.9 19 -7.3 83 83 WNW 17 28 30.31 1026 10 16.0934 0 0
9:15 pm 21:15 Cloudy 22 -5.3 17 -8.1 81 81 WNW 16 26 30.32 1027 10 16.0934 0 0
9:35 pm 21:35 Cloudy with Light Snow 22 -5.7 16 -8.7 80 80 NW 13 20 30.34 1027 10 16.0934 0 0
9:55 pm 21:55 Cloudy with Light Snow 21 -6 15 -9.6 76 76 NW 15 24 30.35 1028 10 16.0934 0 0
10:15 pm 22:15 Cloudy with Light Snow 21 -6.2 15 -9.7 77 77 WNW 10 17 30.36 1028 10 16.0934 0 0
10:35 pm 22:35 Cloudy with Light Snow 21 -6.3 15 -9.5 78 78 WNW 12 19 30.37 1029 10 16.0934 0 0
10:55 pm 22:55 Cloudy with Light Snow 20 -6.7 13 -10.7 74 74 WNW 16 26 30.38 1029 10 16.0934 0 0
11:15 pm 23:15 Cloudy with Light Snow 20 -6.8 13 -10.6 75 75 WNW 13 20 30.39 1029 10 16.0934 0 0
11:35 pm 23:35 Cloudy with Light Snow 20 -6.9 12 -11 73 73 NW 12 19 30.39 1029 10 16.0934 0 0
11:55 pm 23:55 Cloudy with Light Snow 19 -7 13 -10.5 76 76 WNW 12 19 30.41 1030 10 16.0934 0 0

Powered by AerisWeather